Theta_e
314 313 312 312 312 312 311 311 312 311 311 310 309 309 308 308 309 308 308 310 311 312 314 316 317 316 315 315 317 318 320 320 316 315 314 313 314 313 312 313 314 316 314 313 314 315 316 316 315 316 317 320 323 324 323 322 321 322 327 327 323 321 319 319 319 318 318 318 317 316 316 315 314 314 313 314 314 314 314 313 312 311 310 309 308 308 307 306
314 314 314 314 314 313 313 312 312 312 311 310 310 310 309 309 310 309 309 310 312 313 314 317 317 316 316 315 317 318 320 322 319 316 315 313 315 315 315 315 315 315 313 312 314 313 314 315 315 316 317 321 323 323 323 323 321 322 327 324 321 320 318 318 317 317 317 317 316 316 315 315 314 313 313 314 315 314 313 312 311 310 309 308 308 307 306 305
315 314 314 315 316 315 314 313 313 312 312 311 311 310 310 310 310 309 309 311 313 314 315 317 316 316 316 315 316 315 316 323 321 316 315 314 314 315 316 316 315 315 312 312 313 313 314 314 315 316 318 319 322 323 323 322 322 322 323 322 320 319 318 316 316 316 316 316 315 315 315 314 313 313 313 313 314 314 313 312 311 310 308 307 307 305 305 304
315 315 315 316 317 316 315 314 313 313 312 311 311 311 311 310 311 310 309 311 314 315 316 316 315 315 316 316 316 314 318 324 321 316 316 314 315 316 316 316 315 314 313 313 313 313 314 315 316 316 318 320 321 322 321 320 321 321 320 320 319 317 317 316 315 316 315 315 314 315 315 314 313 313 313 314 314 314 313 312 310 309 307 306 305 304 304 303
316 317 316 316 317 317 315 314 314 313 312 312 312 312 311 311 312 311 309 311 314 317 317 316 316 315 316 317 315 316 323 326 320 317 316 314 315 316 315 314 314 314 314 315 315 314 315 317 317 318 320 320 320 321 319 318 318 318 318 318 317 317 317 316 315 316 315 314 314 314 314 313 313 314 314 314 314 313 313 311 308 307 306 305 304 303 303 302
317 318 318 317 317 317 316 314 314 314 313 312 312 312 312 312 313 312 310 311 314 318 318 316 316 316 317 317 314 319 327 324 319 317 314 314 315 315 314 313 313 314 316 316 316 316 317 317 317 318 318 317 318 318 318 318 317 317 317 317 316 316 316 315 315 316 315 313 313 314 313 313 314 314 313 314 313 313 311 309 307 306 304 303 303 302 302 302
318 319 319 319 318 317 316 315 315 315 314 313 312 312 312 313 315 312 311 311 315 318 318 317 316 316 317 317 320 325 327 320 316 315 313 314 315 313 313 313 312 314 316 316 316 316 317 318 316 316 316 317 318 317 317 318 316 317 317 317 315 314 315 315 314 314 314 313 313 313 313 313 313 313 313 314 313 312 310 307 305 305 303 303 302 301 301 301
319 319 320 319 319 317 316 316 316 316 315 314 313 313 313 314 315 313 311 311 314 317 318 317 316 317 317 318 326 331 325 318 315 313 312 313 314 312 312 312 313 315 316 316 316 315 317 317 316 315 316 318 317 315 317 316 316 318 318 316 315 314 314 314 313 313 313 313 313 313 313 314 314 313 314 313 312 310 308 307 305 304 303 302 301 300 301 300
320 319 320 320 318 316 316 316 316 317 317 316 314 313 313 314 315 313 312 311 313 318 318 317 316 317 315 318 326 326 320 317 314 313 312 312 314 312 312 312 312 315 316 316 316 316 316 317 316 316 315 317 316 315 316 315 315 317 316 315 315 315 315 314 313 313 313 313 313 313 313 313 314 314 314 313 311 309 307 306 305 303 302 302 301 300 300 300
321 320 319 319 318 317 316 316 317 318 318 317 316 314 313 314 316 314 311 311 313 317 318 317 316 316 317 321 325 323 317 314 313 313 311 311 313 313 312 312 312 314 316 316 316 315 316 316 317 316 316 316 315 315 316 315 315 315 315 314 314 315 314 313 313 312 312 312 313 313 313 313 313 314 313 313 310 308 306 305 304 303 302 302 301 300 300 300
320 320 320 319 318 317 316 316 317 319 319 319 317 316 314 314 316 315 312 311 313 317 319 317 316 316 319 322 323 322 316 313 314 313 312 311 312 313 312 311 311 313 314 317 317 315 315 316 316 316 316 316 314 315 316 315 315 314 314 314 314 314 314 313 313 313 313 313 313 313 313 314 313 313 313 312 310 308 306 305 304 303 302 302 301 301 300 299
320 320 320 319 318 317 316 316 318 319 320 320 319 317 315 315 317 315 312 312 314 318 319 317 317 316 319 323 320 318 314 313 314 313 312 311 312 314 312 311 311 311 313 316 317 315 314 314 314 315 316 315 314 315 315 314 313 313 313 313 314 314 313 313 313 313 313 313 314 313 313 314 313 313 314 312 309 308 306 305 304 303 303 302 301 301 300 299
319 319 319 319 318 317 316 316 318 320 321 321 320 319 317 316 317 316 313 312 314 318 318 317 316 315 320 322 317 314 314 313 315 314 312 311 312 315 314 312 311 311 312 314 315 313 311 312 313 315 315 313 313 314 313 312 312 313 314 313 315 314 313 314 313 313 312 314 315 314 314 314 313 314 314 311 309 307 306 305 304 303 303 302 301 301 301 299
318 318 319 319 318 317 316 316 318 319 321 322 321 319 318 317 317 315 313 312 315 319 318 316 316 317 321 320 315 314 314 314 315 314 311 310 311 315 316 313 312 312 311 312 314 311 310 312 313 313 314 313 314 314 313 313 313 314 315 316 318 317 315 314 314 314 313 315 316 313 313 314 313 314 313 311 309 307 306 305 304 303 302 302 301 301 300 299
318 318 318 318 318 317 316 316 318 319 321 321 320 319 319 318 317 315 313 313 317 319 317 317 317 319 322 318 315 315 314 316 316 313 310 310 310 315 316 312 312 313 311 312 313 311 310 311 313 314 314 313 313 314 315 315 314 315 317 318 320 318 316 315 314 314 313 314 314 313 312 313 311 311 311 310 308 307 305 304 303 303 302 301 300 299 300 299
318 318 318 318 317 316 316 316 317 318 320 320 318 320 320 318 315 315 314 315 318 318 317 321 320 318 321 319 316 315 316 317 315 312 311 311 310 312 313 311 313 313 312 312 311 310 310 310 314 315 312 312 314 315 317 317 316 317 317 317 319 317 315 315 314 314 313 313 313 312 312 313 311 310 309 308 307 306 304 303 302 302 301 300 299 298 298 298
318 318 318 318 317 316 316 315 317 318 319 318 317 321 320 317 315 315 315 316 319 317 317 322 321 318 319 317 316 316 316 317 314 311 312 312 310 310 311 312 313 313 313 313 311 311 312 312 315 315 312 313 315 316 318 318 319 320 317 316 316 314 313 313 313 314 313 312 312 311 313 313 311 308 308 307 306 305 303 302 302 301 301 300 299 297 297 297
318 318 318 317 317 316 315 315 316 316 316 316 317 320 319 316 317 316 316 318 320 320 319 320 322 324 321 316 316 317 316 316 314 312 313 312 310 310 311 312 312 311 312 313 312 313 313 314 315 316 316 315 314 315 317 318 318 318 317 315 314 313 312 312 313 313 313 312 311 311 313 312 309 308 307 306 305 304 302 302 301 301 300 300 299 297 296 297
318 318 317 317 316 316 315 315 315 314 313 314 316 318 317 317 320 319 316 317 320 323 323 321 321 324 322 317 317 316 314 314 313 313 313 311 309 311 312 312 312 312 313 316 317 316 315 316 317 318 317 314 312 313 314 315 314 314 314 314 314 314 314 314 313 312 311 311 311 311 312 310 309 308 306 305 305 303 302 302 301 301 300 299 298 297 297 297
319 319 317 316 315 316 315 315 315 313 310 310 313 315 313 315 321 322 317 315 318 320 321 320 319 319 319 317 317 315 313 313 313 314 313 310 310 312 312 312 314 315 316 319 320 317 315 318 320 317 313 310 311 312 312 312 311 311 314 315 315 317 315 314 312 310 309 310 310 310 310 309 308 308 306 305 304 303 301 301 301 300 299 298 298 297 297 297
319 319 317 315 314 316 315 314 315 312 308 308 309 311 311 313 320 320 316 316 316 317 319 318 316 317 317 316 315 312 313 315 313 314 312 309 311 313 313 313 315 318 318 319 320 317 316 320 319 312 310 309 310 311 310 311 311 312 314 315 316 317 315 313 312 310 309 310 310 310 310 309 309 308 306 305 303 302 301 300 300 299 298 298 297 297 296 296
320 319 317 315 314 315 314 314 314 310 309 307 308 314 313 312 316 314 313 318 318 317 318 317 315 315 314 315 313 310 313 315 313 314 311 309 313 314 313 313 315 318 318 319 320 319 319 319 314 309 310 310 310 311 311 311 313 313 315 316 317 317 315 313 312 310 309 309 309 309 310 309 308 307 305 304 302 301 301 301 299 298 298 297 296 296 296 296
320 319 317 315 314 315 314 314 313 308 309 306 307 314 312 309 311 311 312 319 320 318 318 317 316 316 315 314 312 311 314 313 313 314 309 309 313 314 314 313 313 316 317 317 317 317 319 317 312 310 311 310 310 312 312 312 314 315 315 314 316 317 314 314 313 309 308 309 309 310 311 309 305 304 303 302 301 301 301 301 300 299 298 297 297 296 296 296
320 319 317 315 314 315 313 314 311 306 311 311 307 308 308 308 311 312 316 323 322 319 317 316 317 317 316 313 311 312 313 311 311 310 308 310 311 311 313 312 311 315 317 313 313 316 317 313 311 312 311 311 313 313 314 315 314 315 317 317 316 314 312 312 311 309 308 309 311 310 310 309 304 302 300 299 299 299 299 299 299 299 298 298 297 297 296 296
321 319 316 314 315 315 313 315 311 305 313 318 310 305 307 311 312 312 317 322 321 321 319 318 320 319 314 312 312 312 311 311 310 308 307 309 310 311 312 310 311 316 316 312 312 314 314 310 312 314 313 314 317 315 315 317 314 314 318 317 313 310 309 311 311 310 309 311 311 309 310 310 306 301 299 298 298 298 298 298 297 297 297 297 297 296 296 296
320 319 316 314 315 314 316 319 313 307 316 319 311 304 306 310 310 311 318 321 321 323 322 320 322 319 314 313 313 312 314 313 308 307 307 307 308 310 311 312 313 314 312 310 311 313 310 309 311 314 314 316 318 316 315 316 315 315 315 312 309 308 310 312 311 311 311 311 310 309 310 309 307 304 300 298 298 297 298 298 297 296 296 296 296 295 295 295
319 319 315 313 313 313 317 318 312 312 319 318 310 304 307 310 309 313 323 326 326 325 323 320 320 318 315 313 311 313 318 314 307 307 307 307 308 308 310 313 314 313 309 310 315 314 311 311 313 315 315 316 316 315 316 315 315 315 312 309 308 309 311 312 312 312 311 311 310 311 310 308 308 307 301 299 298 297 297 297 296 296 295 296 295 295 295 295
318 317 315 312 310 309 311 311 311 316 316 310 306 305 309 310 310 318 325 325 326 324 321 318 315 315 314 311 310 312 314 312 312 310 305 305 308 307 310 312 311 312 308 310 317 315 313 314 315 315 314 314 313 313 313 313 313 312 308 308 308 309 310 311 311 312 311 310 309 310 311 310 311 308 301 299 298 297 297 296 296 296 295 295 295 295 294 294
316 317 316 311 308 308 307 307 311 316 312 306 306 307 308 308 312 322 324 322 324 322 318 316 314 314 314 312 311 311 310 312 314 310 304 306 308 307 310 310 309 310 309 310 313 313 313 312 311 312 312 312 311 310 311 310 311 310 309 311 312 312 312 312 313 313 310 309 307 308 311 312 313 307 301 301 300 298 297 295 295 295 295 295 294 294 294 294
316 317 316 310 310 311 307 309 312 311 307 305 306 308 309 313 319 324 325 324 324 320 316 316 317 317 315 314 315 312 311 313 311 308 306 307 308 307 308 308 306 310 312 312 312 312 310 308 308 311 312 311 309 309 311 310 309 310 311 313 312 312 312 311 314 313 309 310 309 308 309 311 313 308 302 302 300 298 297 295 295 295 294 294 294 294 294 294
315 317 316 310 308 307 307 314 315 308 305 305 306 310 315 321 322 321 324 322 319 320 317 316 318 317 315 318 319 314 312 314 311 309 310 308 308 308 309 310 310 312 315 315 316 315 311 311 313 312 309 310 309 310 312 310 309 311 312 311 310 311 310 309 314 314 311 312 309 306 307 308 310 309 302 298 297 296 296 295 294 294 294 294 294 294 294 294
316 316 317 313 305 303 308 316 314 307 304 303 308 314 317 321 321 319 321 318 318 322 321 320 320 317 316 319 320 317 317 317 312 311 314 313 313 312 312 315 317 319 322 321 319 318 317 316 315 312 308 310 312 312 312 310 310 311 310 308 310 313 312 311 315 315 313 311 306 303 304 304 305 306 301 297 295 295 295 294 294 294 294 294 294 294 295 295
317 317 317 315 307 304 309 311 307 305 303 304 312 316 315 321 324 322 322 319 321 325 324 322 321 318 319 320 321 321 321 320 315 312 314 315 316 317 317 316 317 321 323 320 318 318 319 317 313 312 310 309 311 313 313 311 309 308 307 307 310 311 311 311 312 313 314 309 304 302 303 303 303 303 300 296 295 295 295 295 295 294 294 294 294 294 295 294
318 317 317 317 311 307 307 305 303 302 303 309 315 314 316 322 323 323 326 323 322 323 321 320 320 319 320 321 321 322 322 321 317 312 314 314 315 318 319 316 315 316 316 316 315 315 319 320 316 314 311 308 309 310 310 308 306 306 305 306 308 308 309 310 310 310 311 308 304 303 304 305 304 302 298 296 295 295 295 295 295 294 294 295 294 294 294 293
318 317 317 317 314 311 306 304 303 302 307 315 314 312 319 322 321 322 325 324 321 319 317 318 319 321 322 322 320 319 319 321 317 312 315 316 316 318 319 317 314 312 314 318 317 313 317 320 314 308 306 306 307 307 305 307 308 306 304 305 307 306 306 309 307 305 306 305 303 303 305 304 301 298 297 296 295 295 295 295 294 294 294 295 294 294 294 293
316 315 316 315 314 314 309 305 304 304 311 317 311 313 318 319 322 323 321 320 320 321 320 317 319 323 323 323 322 318 316 317 316 314 317 316 315 317 318 317 314 311 314 318 319 316 318 319 310 305 305 303 303 304 303 307 309 305 303 306 305 303 302 305 306 304 305 305 302 303 305 303 300 298 297 296 296 295 294 294 293 294 294 294 294 294 293 293
314 313 314 314 313 313 310 306 305 307 314 315 311 315 317 316 320 320 319 318 317 319 320 319 321 324 323 322 323 320 315 316 316 316 319 318 317 317 316 316 314 311 313 315 317 318 319 318 310 307 308 302 300 303 302 303 305 303 304 305 302 301 300 301 304 303 304 305 304 304 305 302 302 301 297 295 296 295 294 293 293 293 293 293 293 293 293 293
314 311 313 313 313 314 311 306 306 310 315 312 311 316 317 317 316 316 320 320 317 319 320 320 321 323 322 320 321 320 315 317 318 316 319 321 320 318 315 315 314 311 311 313 313 315 317 319 312 306 306 302 300 304 304 302 302 303 302 301 301 303 302 302 304 304 304 304 304 305 304 302 303 302 297 295 296 295 294 293 293 293 293 293 293 293 293 293
312 311 313 313 313 313 310 306 308 313 312 309 312 316 317 317 316 316 320 318 318 320 320 320 319 320 322 320 320 320 316 318 319 316 318 320 320 317 313 316 315 309 308 309 311 312 313 317 314 305 303 302 301 304 306 303 301 300 299 299 300 301 302 303 303 303 303 303 303 304 303 302 302 301 298 296 295 294 293 293 293 293 293 293 293 293 293 292
310 312 315 313 311 311 308 308 312 313 310 309 313 316 318 318 316 316 317 316 318 319 319 320 319 319 320 319 321 320 317 319 320 318 319 319 319 318 312 314 315 308 305 307 310 311 310 312 312 305 300 302 303 304 306 304 301 299 298 298 298 298 300 302 301 300 301 301 301 302 302 302 300 298 296 295 295 294 294 293 293 294 293 292 293 293 293 292
310 314 315 311 309 309 309 311 313 311 309 310 313 315 317 318 317 316 316 316 318 316 316 318 319 319 318 317 319 319 320 321 319 319 320 318 318 319 314 312 312 308 306 307 309 309 309 310 310 306 302 303 304 302 302 303 302 301 299 299 299 299 300 301 300 300 301 299 300 301 301 302 299 296 296 295 295 295 294 293 293 293 293 292 293 293 292 292
311 316 315 309 307 308 310 313 313 310 310 311 312 315 316 315 316 317 315 315 318 316 314 315 316 317 317 316 317 319 321 321 319 320 320 318 318 318 315 311 309 306 307 308 308 308 309 309 309 307 305 304 303 299 298 299 300 301 300 300 300 298 300 301 300 302 301 299 298 298 298 299 298 297 296 295 295 295 294 294 293 293 292 292 293 292 292 291
312 314 311 307 307 309 313 315 314 313 312 312 313 316 317 316 315 315 315 314 315 315 315 315 314 314 315 316 316 317 319 319 319 319 318 320 317 310 309 309 307 306 307 307 306 306 307 309 308 308 307 303 298 296 296 297 297 299 299 299 299 297 299 299 298 300 301 299 298 298 298 298 297 298 298 296 296 296 295 294 293 292 292 292 292 292 291 291
312 312 309 307 308 310 314 316 315 314 313 314 315 315 316 316 315 314 314 314 313 313 314 314 313 313 314 316 315 315 316 317 319 319 319 321 314 302 302 307 305 305 307 307 307 307 308 309 308 308 309 307 303 298 298 297 296 296 297 298 299 298 299 299 297 298 299 298 297 297 298 298 296 297 298 296 296 296 294 293 293 293 293 292 292 292 291 291
313 313 311 308 308 310 314 315 315 316 316 315 316 315 315 316 315 314 314 314 313 313 314 314 314 313 313 315 315 315 316 315 317 319 318 318 310 300 300 304 303 304 305 305 306 307 309 308 307 310 314 315 315 310 304 300 297 296 297 298 299 298 298 298 297 298 297 296 297 296 297 298 296 296 297 295 295 296 294 293 292 292 292 292 292 292 291 290
315 315 313 309 308 309 311 312 313 316 318 317 317 316 315 315 315 315 315 314 313 312 313 315 315 314 314 315 315 315 315 315 317 318 317 314 307 300 300 301 301 302 303 303 305 306 307 305 304 309 312 314 316 311 305 301 297 297 297 297 297 298 298 298 297 298 297 296 297 297 297 297 297 297 296 296 295 295 294 293 292 292 292 292 292 291 291 290
315 316 314 311 310 310 310 311 312 314 316 317 317 317 317 316 315 315 314 314 314 313 312 313 314 314 315 315 315 314 315 315 316 316 316 315 305 298 298 299 299 300 300 302 304 305 305 304 304 306 307 308 309 306 303 301 298 297 297 296 296 297 299 299 298 297 297 297 297 297 297 297 297 296 296 295 295 294 293 292 291 291 292 292 291 291 290 289
315 315 314 313 313 313 311 311 312 313 314 316 316 316 318 318 318 317 315 313 314 314 314 315 315 314 314 315 315 315 314 315 316 315 315 315 307 300 298 299 298 299 300 300 301 301 303 304 305 304 303 304 304 303 302 301 298 297 297 296 295 296 298 298 297 296 296 297 297 297 297 297 297 296 295 295 294 293 292 291 291 292 292 291 291 290 289 289
315 315 315 314 314 314 313 311 311 312 314 315 316 316 317 318 319 319 317 315 315 314 314 315 315 314 314 314 314 314 314 315 316 316 314 313 309 304 302 302 300 298 298 299 299 299 301 303 302 302 302 302 301 302 301 300 299 298 297 297 296 296 296 297 296 296 296 296 296 296 296 296 296 295 295 294 294 293 292 292 292 292 291 291 290 289 289 288
314 315 315 315 315 315 315 313 312 313 314 314 316 316 316 317 318 318 318 318 316 315 314 314 315 315 315 315 314 314 314 314 316 316 314 313 310 306 305 307 303 298 297 298 298 299 301 302 301 300 301 301 300 300 300 299 299 298 297 297 297 296 296 296 296 296 296 296 295 295 295 295 295 295 295 295 294 292 292 292 292 291 291 291 290 289 288 288
313 313 313 315 316 316 317 316 313 314 314 315 316 316 316 317 317 317 318 317 316 316 315 314 314 315 316 315 314 313 313 314 316 316 315 314 313 309 308 307 304 300 298 297 298 299 300 301 301 300 302 302 300 299 299 298 298 298 298 297 297 297 296 296 296 296 296 296 295 296 296 295 295 295 295 294 293 292 292 292 292 291 291 290 289 289 288 286
312 313 313 314 315 315 316 317 316 316 316 316 316 316 316 317 317 317 318 318 317 317 315 315 315 314 314 316 315 314 314 313 313 311 310 311 312 311 309 306 304 302 299 297 298 299 298 300 301 301 303 302 299 298 297 297 298 299 299 298 297 297 297 297 297 297 296 296 296 296 296 295 295 295 294 293 293 292 292 291 291 291 290 289 289 288 286 285
Wind_Speed
21 22 23 25 26 27 28 29 29 29 30 30 31 30 30 31 31 29 27 23 21 24 23 17 11 5 6 9 10 10 10 10 12 17 13 7 11 13 11 12 14 15 13 10 12 12 7 5 4 6 2 4 2 2 3 1 0 1 1 1 3 2 2 3 4 4 2 3 5 4 6 5 4 4 3 2 3 3 6 8 7 10 16 17 19 23 25 27
20 21 23 24 25 26 27 28 29 29 29 30 30 30 30 30 31 29 26 23 21 24 22 16 12 7 5 11 10 8 5 3 7 15 10 9 13 14 13 13 14 13 12 9 10 11 8 6 7 9 4 2 2 2 2 2 1 2 1 2 1 2 2 4 5 5 4 5 7 7 7 5 4 4 3 3 2 5 7 6 7 10 15 17 20 24 24 26
20 21 22 24 25 26 27 28 28 29 29 29 30 29 30 30 30 29 26 22 22 24 20 14 11 7 2 9 9 4 1 4 2 7 7 12 14 14 13 12 11 11 11 8 8 9 7 7 9 8 4 3 1 2 1 2 1 1 1 1 0 2 2 4 5 6 6 7 7 6 6 4 5 4 2 3 4 8 7 5 7 10 12 12 14 19 22 23
20 21 22 23 24 26 27 27 28 28 29 29 29 29 29 30 30 29 26 22 23 24 19 12 10 7 0 6 10 6 2 3 1 3 8 14 14 14 12 11 12 11 10 9 8 9 9 9 9 6 3 3 2 2 2 1 1 0 0 1 2 0 2 2 4 5 6 7 6 5 5 3 4 2 1 4 3 6 5 6 9 11 12 11 11 15 19 20
19 20 22 23 24 25 26 27 27 28 28 28 29 29 29 29 30 29 25 22 23 24 17 10 9 7 3 3 8 7 1 1 1 4 11 15 13 13 12 12 13 11 11 11 10 10 9 9 7 3 2 3 1 1 2 2 1 1 1 2 4 2 1 2 3 4 5 6 4 5 3 3 4 0 2 5 5 3 4 9 13 13 12 12 12 14 17 18
19 20 22 22 24 25 26 27 27 27 27 28 29 29 28 29 30 29 25 22 23 22 16 8 6 7 6 4 7 6 1 1 2 7 14 15 12 12 12 12 13 12 12 12 11 10 7 7 6 2 1 3 2 1 2 3 0 1 2 4 5 3 1 1 3 3 4 4 4 4 4 3 4 1 5 7 6 4 9 14 15 14 14 16 16 14 14 13
18 20 21 22 23 25 26 27 27 27 27 27 28 28 28 28 29 29 24 21 22 21 15 8 3 5 6 4 3 4 1 3 5 10 14 13 10 11 12 13 14 13 11 11 11 9 6 6 5 4 3 3 1 2 2 1 2 2 1 4 4 3 2 1 3 3 2 2 3 3 4 4 4 1 5 6 6 8 14 16 15 16 17 18 16 13 12 13
18 20 21 22 23 24 25 26 27 27 27 27 27 28 27 27 28 28 24 21 21 19 14 9 3 2 1 1 1 2 1 3 6 10 12 11 9 11 12 12 12 12 9 8 9 8 6 6 6 4 3 2 3 3 3 2 4 4 1 2 2 1 1 0 3 3 2 2 3 4 5 3 1 4 6 5 7 11 15 14 14 15 15 15 13 12 11 12
19 19 21 22 23 24 25 26 26 27 27 27 26 27 26 26 27 28 24 20 20 19 13 9 4 4 6 4 2 2 1 1 6 10 12 11 9 9 11 11 11 11 8 7 9 10 6 4 5 3 3 3 3 4 3 3 2 2 2 1 1 3 4 3 3 1 1 2 5 6 5 2 3 5 6 6 9 13 14 14 12 12 12 11 11 11 11 10
18 19 21 22 23 24 25 26 26 27 27 26 26 26 25 25 26 26 24 20 19 18 12 7 4 2 4 3 3 2 2 2 6 11 12 12 9 7 9 11 11 10 8 6 7 9 4 3 4 2 2 3 3 4 1 1 1 2 4 3 5 5 3 4 3 2 2 3 6 6 6 2 4 4 3 5 10 14 13 13 11 11 11 10 10 9 10 11
19 20 20 22 23 24 25 26 26 27 27 26 26 25 24 24 25 25 23 19 18 18 13 7 2 3 5 4 3 2 2 2 6 11 13 13 10 7 9 11 11 8 7 5 6 6 3 4 5 2 1 0 2 3 3 1 2 3 5 5 6 5 3 3 3 3 2 2 5 7 7 4 3 3 4 6 10 13 13 12 10 10 10 9 10 8 8 10
19 20 20 21 23 23 25 25 26 27 27 27 25 24 23 23 24 24 22 18 17 17 14 9 5 5 6 4 1 1 2 2 6 10 13 14 11 9 9 10 10 7 5 4 4 4 3 3 4 3 1 1 3 3 1 2 2 4 4 3 3 6 4 5 5 4 4 0 5 7 5 3 4 5 7 10 11 12 12 10 9 9 8 8 8 7 7 9
19 20 20 21 22 23 24 25 27 27 27 27 25 24 22 22 23 22 21 17 16 16 13 9 6 6 5 1 2 2 2 3 6 10 12 12 10 10 9 10 10 6 4 3 3 3 3 2 2 4 3 2 2 0 1 0 2 4 3 1 3 4 4 6 5 6 5 1 4 6 3 2 6 8 7 11 13 12 11 9 8 7 7 7 7 6 6 10
19 20 20 21 22 23 23 25 26 27 28 27 25 24 22 22 22 20 20 16 15 15 9 6 3 4 3 1 2 1 2 5 5 10 12 11 10 8 6 9 10 6 5 3 3 4 3 2 2 4 2 3 2 1 1 2 1 2 1 1 2 1 3 5 3 6 5 3 4 3 2 2 2 7 6 10 13 11 10 8 7 6 6 6 6 6 5 8
18 19 20 20 21 22 23 24 25 27 27 26 26 24 22 22 20 19 18 14 15 12 5 2 1 2 2 1 1 1 2 4 4 9 11 13 13 6 4 9 8 6 7 4 4 4 2 1 2 3 1 3 2 3 4 2 3 2 1 2 2 3 1 3 1 2 1 2 4 0 2 3 4 6 6 10 11 10 10 8 7 7 7 7 6 6 5 7
17 19 19 19 20 21 23 24 25 27 26 26 26 24 23 21 18 19 15 12 14 8 1 1 1 2 3 1 2 1 3 3 4 9 10 13 13 6 8 11 7 5 6 4 4 4 3 3 2 1 1 1 2 2 4 1 1 1 2 3 3 4 2 1 0 1 2 1 1 1 2 4 2 6 5 9 11 10 9 8 7 7 7 7 5 6 5 5
16 17 18 18 19 20 22 23 24 26 26 26 25 24 22 16 17 17 9 12 14 3 1 3 4 3 1 1 1 1 2 2 4 7 9 12 12 8 8 8 4 5 5 5 5 4 3 3 2 1 0 2 1 2 4 4 1 1 3 3 3 4 5 2 2 1 1 1 2 2 4 5 1 8 5 7 10 10 9 7 7 6 6 6 6 6 6 5
15 16 17 17 18 19 20 22 24 25 26 25 25 25 18 14 18 11 4 15 13 1 2 3 4 3 1 1 1 1 3 3 6 6 8 10 12 10 6 4 4 6 6 5 4 3 2 3 2 1 1 1 3 5 3 1 0 3 3 2 4 4 6 6 2 1 1 0 3 4 5 5 1 7 7 6 7 8 9 7 7 6 6 6 5 6 5 5
14 15 16 16 17 18 19 21 23 24 25 25 25 21 12 12 13 2 4 17 9 2 2 2 1 3 2 1 1 3 5 5 5 3 5 10 12 10 7 6 3 4 5 2 1 2 0 1 1 1 2 3 4 4 1 1 1 4 4 3 5 4 6 7 1 1 1 2 3 4 4 7 4 5 7 6 7 8 7 6 6 5 5 5 5 5 5 5
13 14 15 15 15 17 18 19 21 23 23 24 24 16 8 9 6 1 7 13 2 1 4 2 1 5 4 1 2 6 6 3 2 1 5 12 12 9 5 5 3 2 2 3 4 1 2 3 2 2 3 4 3 2 0 2 2 4 4 4 6 6 6 4 0 3 4 3 3 5 7 9 6 5 9 7 7 7 7 7 6 5 5 5 5 5 5 4
13 14 14 14 15 15 16 18 20 20 19 20 19 10 3 4 3 1 6 7 3 1 1 2 2 4 3 1 2 6 2 3 2 2 7 11 7 4 2 1 3 2 2 5 5 1 2 3 1 3 2 2 2 1 1 3 4 5 5 5 6 5 5 4 0 3 4 3 3 7 9 10 6 6 9 8 7 7 7 7 6 6 6 5 5 4 3 2
12 13 14 14 14 14 15 17 18 17 17 17 16 8 3 3 1 2 2 5 4 1 2 1 1 3 1 0 1 3 2 3 2 2 8 10 3 1 4 4 4 4 6 7 3 2 4 2 2 2 0 1 2 3 3 5 5 5 5 4 6 3 2 4 1 2 4 2 4 7 7 7 2 8 8 7 7 5 6 7 6 6 6 4 4 4 2 1
11 12 13 13 13 13 14 15 14 14 16 14 12 6 2 1 3 3 1 4 4 1 3 2 2 2 3 2 1 1 2 1 2 2 8 9 1 1 2 3 3 5 6 3 4 4 5 1 2 1 1 1 3 4 5 6 5 5 4 4 5 0 1 3 0 4 6 5 5 6 6 3 3 6 5 5 6 6 6 7 6 6 6 5 4 4 3 3
11 12 12 12 12 12 13 14 10 12 13 10 10 7 2 2 4 3 1 4 3 1 1 1 2 1 2 2 1 1 2 1 1 1 6 6 2 0 1 1 3 5 2 4 4 5 6 2 2 1 1 1 4 4 4 3 3 4 3 3 3 1 1 4 3 6 7 6 4 5 6 4 6 7 5 5 6 6 7 7 6 6 6 5 4 5 4 2
10 11 12 12 12 11 12 9 7 11 8 5 7 7 4 3 5 4 2 3 3 1 1 0 1 1 1 2 1 1 0 1 2 3 5 4 2 1 0 1 2 3 3 5 4 6 5 1 1 1 2 2 3 5 1 1 3 4 1 1 2 1 2 4 5 6 5 4 3 1 4 4 7 9 7 6 7 7 7 7 7 6 5 6 4 3 2 1
10 10 11 11 11 11 9 3 6 11 5 2 5 6 5 2 5 3 2 1 3 1 1 0 1 1 2 2 1 0 1 0 2 2 3 3 1 1 1 0 2 1 3 3 2 3 2 2 2 1 2 3 4 4 0 3 2 3 2 1 2 1 5 5 6 4 2 4 4 3 1 4 4 8 9 9 8 8 7 6 6 5 5 5 3 2 0 3
10 9 10 10 11 10 5 1 5 8 2 1 6 6 4 2 5 2 1 1 3 2 2 0 1 1 2 0 1 0 1 1 1 1 2 2 0 1 1 2 1 1 1 1 2 2 2 2 1 2 2 2 4 3 1 1 1 2 3 2 1 4 6 6 6 4 4 5 6 5 5 5 6 5 11 12 9 8 8 7 6 5 5 5 3 2 1 3
11 8 9 8 9 8 3 2 5 4 1 4 5 5 3 3 4 1 2 2 2 2 1 1 0 1 1 1 2 1 0 2 1 0 1 1 0 2 2 3 3 3 1 1 3 2 2 2 2 1 0 2 2 2 1 1 1 1 1 2 3 6 8 7 6 6 5 5 5 6 5 4 6 3 9 12 10 9 9 8 6 5 4 4 3 1 2 3
11 8 8 8 6 4 2 3 4 2 4 5 4 2 3 4 1 1 2 1 0 2 1 1 1 1 2 1 2 2 1 2 0 0 2 1 1 1 2 1 1 5 3 4 6 4 1 2 2 3 2 2 2 3 2 1 2 2 4 5 5 7 8 6 6 5 4 6 7 6 6 4 4 2 7 8 8 9 8 7 6 5 4 3 2 1 3 4
11 8 8 8 4 2 4 4 4 5 5 3 1 2 4 2 0 1 1 2 0 1 1 1 0 2 3 3 3 3 3 2 1 1 2 1 0 1 1 1 1 4 4 5 7 5 2 3 1 1 2 1 2 3 3 3 2 3 5 5 5 6 7 5 5 4 2 5 5 5 6 6 4 3 6 5 4 6 7 6 5 5 3 2 2 0 4 5
10 8 8 8 4 2 3 2 4 5 4 1 2 3 2 0 0 1 4 1 1 0 1 1 0 1 3 2 1 2 2 3 3 3 2 1 1 2 1 0 1 1 3 4 5 3 2 2 1 0 1 1 2 1 3 4 1 2 2 4 5 5 4 2 1 1 1 5 2 3 3 1 4 4 4 3 4 7 7 6 5 4 1 1 2 4 5 5
10 9 9 8 5 2 2 4 5 5 3 2 2 1 1 0 2 4 3 1 1 2 2 1 1 2 2 1 0 2 1 2 4 4 2 2 2 3 3 3 1 2 3 2 2 3 2 4 2 2 1 1 3 0 1 1 1 2 3 3 3 4 3 2 1 1 3 4 2 5 8 3 6 4 4 8 6 7 7 6 5 3 2 3 4 5 5 5
11 10 10 10 5 3 5 8 8 6 2 3 1 1 0 1 4 4 4 1 1 1 2 2 1 1 3 2 2 2 2 2 5 3 1 3 1 3 3 3 4 2 4 1 3 3 2 1 2 3 1 1 4 2 1 1 1 3 2 1 1 2 3 3 2 2 3 3 3 3 7 4 5 4 5 10 8 7 7 6 6 4 4 3 4 4 4 5
11 10 11 11 8 6 9 10 10 6 2 3 1 1 3 4 4 2 5 4 2 1 2 3 1 1 2 2 3 3 1 4 5 3 1 3 2 3 3 3 4 4 2 1 2 3 3 4 2 3 1 2 3 3 3 2 1 2 3 3 2 1 3 4 1 2 4 5 4 1 4 3 3 2 4 9 8 7 7 6 6 4 3 3 4 4 4 4
11 10 12 13 11 9 9 10 9 5 5 2 1 3 5 6 4 2 5 3 1 2 2 2 2 2 3 4 4 3 2 3 2 3 2 5 4 4 4 4 6 5 3 1 2 2 4 5 2 2 1 3 2 2 3 3 0 1 3 3 1 2 3 3 1 2 2 6 5 2 2 4 0 2 3 8 6 7 6 5 5 4 3 5 4 3 4 4
10 8 10 11 11 9 7 10 8 8 5 2 3 5 7 6 4 3 3 1 1 3 3 1 2 2 4 3 4 3 1 0 1 2 2 5 5 6 5 4 6 8 6 4 1 1 3 4 1 1 1 1 2 1 1 2 1 0 2 2 4 2 2 0 3 1 2 5 5 3 4 3 2 1 4 6 5 6 6 5 5 4 4 4 3 3 4 4
8 6 7 7 8 8 7 8 9 9 3 2 5 7 6 6 7 6 2 2 0 2 3 1 3 4 4 2 3 5 2 0 2 2 2 3 4 6 6 3 5 9 8 3 1 2 1 4 3 2 0 0 2 2 1 1 2 3 2 3 2 1 3 3 1 3 1 6 4 4 6 5 1 2 4 6 6 5 5 5 2 2 3 3 3 3 4 5
6 4 6 7 10 11 9 7 9 7 1 3 8 10 7 6 8 6 3 4 1 2 3 3 4 4 4 3 2 4 5 2 3 3 2 2 3 5 8 3 2 4 2 3 0 1 1 2 3 0 1 1 2 2 0 2 2 2 2 1 2 1 1 3 1 1 2 6 6 4 8 7 5 4 6 9 7 5 3 2 1 2 3 3 3 4 5 5
6 2 3 8 13 13 11 9 8 4 2 5 9 8 6 8 10 7 4 5 3 3 3 5 5 4 4 4 1 3 5 4 5 4 2 3 3 5 8 5 2 1 2 4 2 1 2 1 3 2 2 1 1 1 2 1 2 3 2 1 2 2 2 2 2 2 2 5 6 9 10 4 4 5 9 10 6 5 2 2 2 3 3 3 3 4 5 6
5 1 2 11 14 12 12 11 6 3 5 7 8 7 6 6 8 8 8 6 4 3 4 4 5 5 5 5 4 3 5 6 5 4 3 4 3 4 7 6 5 4 4 5 1 0 2 3 3 2 2 1 2 3 5 5 4 3 2 3 2 1 1 1 1 2 2 4 3 7 11 4 2 1 7 8 6 6 4 1 1 2 2 2 3 5 5 6
4 2 2 11 13 13 14 8 3 5 5 6 8 9 8 5 4 7 8 8 6 5 5 5 6 6 6 6 5 4 4 4 5 5 4 5 4 4 5 6 8 8 4 4 0 2 2 3 4 2 2 4 3 2 2 3 4 5 5 6 6 5 3 2 4 2 2 4 4 5 11 8 3 2 5 7 6 5 5 2 2 2 0 2 4 5 5 6
4 3 3 11 16 17 12 4 4 5 5 7 8 8 6 4 4 6 6 6 6 4 3 4 6 7 7 7 5 4 3 4 6 6 4 6 7 5 3 4 9 10 6 2 1 2 1 1 2 5 4 3 2 1 1 2 2 3 4 4 6 6 5 5 6 3 2 3 3 3 10 8 2 5 5 6 6 5 4 3 2 1 2 2 4 5 6 6
3 2 3 10 17 15 7 4 5 6 7 7 8 9 7 4 4 6 6 5 4 3 2 4 6 8 8 7 6 6 4 5 8 8 5 6 6 4 3 5 10 8 5 2 1 0 1 2 1 5 4 0 1 1 0 1 2 1 4 5 5 6 7 5 4 1 2 4 4 2 8 7 1 3 4 6 6 6 4 3 3 3 2 2 4 6 6 7
3 3 2 9 16 12 6 6 7 8 8 7 8 10 9 6 6 8 8 8 6 5 4 5 6 8 7 6 6 7 6 5 8 7 7 7 3 2 4 4 8 7 3 2 3 4 2 2 2 2 5 3 1 1 2 1 2 3 5 5 6 6 4 2 1 2 2 9 8 5 10 7 2 3 5 7 7 5 1 2 5 4 2 3 4 5 6 7
3 3 1 7 13 10 5 4 5 7 8 9 11 13 12 7 6 9 10 9 8 7 5 5 5 6 5 5 5 9 10 8 7 3 4 4 1 3 4 3 1 3 2 2 2 5 4 3 5 4 6 9 7 4 2 2 3 3 4 7 9 9 8 5 2 3 6 10 9 9 13 9 4 6 6 5 5 7 5 3 5 4 2 3 4 5 6 7
3 4 2 4 6 7 4 2 2 5 7 8 10 12 13 11 8 8 10 9 10 11 9 6 4 5 5 6 7 11 11 10 8 4 3 2 1 1 1 3 3 2 2 2 1 4 2 2 7 10 12 12 10 5 1 3 4 4 6 10 11 11 13 9 4 7 8 4 7 14 14 13 13 10 7 7 6 7 5 3 5 3 3 4 5 5 7 7
4 5 5 4 3 5 5 4 6 7 7 8 7 7 11 14 9 6 10 10 9 11 11 8 7 7 7 8 8 11 10 9 9 10 9 5 2 0 1 2 2 2 2 1 1 3 2 4 10 14 17 17 12 7 2 6 6 7 8 10 12 13 13 12 12 13 6 2 13 18 12 13 17 11 7 7 5 4 1 4 3 2 3 4 5 6 9 9
6 4 6 8 6 6 6 8 10 10 12 11 8 9 12 12 9 8 9 7 6 9 8 7 11 15 14 11 8 8 9 7 8 12 11 5 3 3 0 1 1 1 3 1 2 2 3 6 8 11 17 18 12 10 7 5 7 9 9 9 12 14 15 17 19 17 9 9 18 18 11 15 15 8 6 6 3 0 2 3 0 1 2 4 6 8 10 10
6 2 3 8 8 8 9 11 12 14 18 15 11 14 14 12 14 11 6 4 5 8 9 9 14 16 17 16 11 10 12 8 8 11 8 5 4 5 2 2 2 2 3 2 1 1 2 5 5 7 14 15 11 11 11 9 10 13 11 10 12 15 17 18 19 18 16 18 22 20 19 22 16 10 9 7 1 3 3 2 1 2 3 5 7 9 10 9
7 3 4 5 7 10 7 9 12 12 15 15 13 14 13 16 22 16 7 9 9 5 9 17 21 14 15 17 15 18 18 12 12 13 8 8 6 4 4 3 4 4 4 4 2 2 3 3 2 4 9 12 9 9 9 9 11 15 14 12 14 16 17 18 19 17 16 20 24 22 21 22 16 8 7 4 2 4 2 1 2 3 4 5 7 9 9 8
13 8 8 3 5 10 8 7 10 8 11 14 14 13 14 20 25 17 10 13 16 11 12 21 23 12 10 14 18 23 21 15 15 15 9 10 9 7 6 5 8 8 6 6 4 3 5 3 1 2 5 7 4 6 7 7 9 17 21 19 18 18 17 18 17 15 15 19 22 19 15 16 10 3 3 4 5 5 2 1 3 4 4 4 7 9 7 6
16 10 10 6 6 9 10 9 9 9 11 13 13 15 19 21 21 15 10 11 17 21 19 17 14 9 9 17 21 20 15 9 6 3 3 4 2 4 5 6 11 11 8 8 6 4 6 5 1 3 4 2 2 4 1 3 6 14 16 15 19 21 20 18 16 17 19 19 16 13 13 12 5 1 5 5 4 4 2 1 1 3 4 5 6 5 5 6
Wind_Direction
16 14 14 13 13 13 13 12 12 12 11 10 9 9 9 9 9 9 10 11 12 8 6 9 17 42 139 144 124 114 96 86 64 54 57 23 354 352 346 343 347 350 353 0 357 346 314 265 272 315 286 187 211 157 166 166 32 252 221 244 281 345 51 339 347 31 351 358 9 22 47 41 44 51 32 326 221 171 72 62 44 54 61 63 62 57 55 51
14 13 12 11 10 10 10 10 10 10 10 9 7 7 7 7 7 8 10 12 12 8 7 11 16 29 144 152 135 121 114 128 63 57 45 358 352 347 344 343 347 352 355 4 3 352 343 341 336 326 306 225 185 165 190 156 186 238 275 265 315 41 35 344 349 352 2 11 358 12 16 19 47 44 14 351 107 86 52 48 36 56 64 59 54 53 52 50
11 11 10 8 8 7 7 8 8 8 8 7 6 5 5 5 5 7 9 12 12 7 7 11 14 19 153 174 174 160 21 264 360 50 10 343 342 342 347 348 355 360 357 355 345 334 323 316 306 303 309 288 189 148 215 176 199 242 26 258 125 74 74 11 351 340 359 6 4 6 342 3 50 33 360 334 67 70 53 40 31 58 69 61 54 53 52 50
8 8 7 6 5 4 5 5 5 6 6 5 4 3 4 3 3 6 8 11 11 7 8 12 12 13 90 191 200 208 316 294 347 12 332 336 340 347 354 360 7 7 2 351 326 309 294 290 287 288 313 293 168 145 187 164 329 359 269 163 138 226 152 51 342 335 355 6 2 326 315 16 23 30 352 328 61 76 52 51 53 72 76 68 59 52 50 49
5 5 4 3 3 2 3 3 3 3 4 3 3 2 1 1 1 4 6 9 10 8 8 14 22 32 65 167 194 195 285 303 50 339 330 339 348 357 4 12 11 8 5 351 329 312 299 300 293 271 261 277 195 175 141 102 354 306 254 110 89 324 163 90 324 335 1 3 341 315 346 11 330 91 76 25 68 76 58 72 73 81 78 71 66 54 50 47
2 2 1 1 0 360 1 1 0 1 2 2 1 359 358 359 360 1 5 6 9 9 9 12 33 61 81 113 171 187 259 4 24 344 338 347 358 7 15 17 13 14 8 352 342 337 333 325 309 333 316 288 341 18 93 106 314 285 258 101 77 352 38 85 311 345 18 351 324 330 7 341 306 58 81 67 67 49 78 84 81 85 80 75 68 57 51 44
1 360 358 358 358 358 358 358 358 358 359 0 360 358 356 357 357 358 2 4 6 8 9 5 21 89 93 97 156 208 205 68 16 346 345 355 7 16 22 18 14 18 12 4 1 355 351 338 334 1 321 278 360 18 50 105 204 249 265 118 93 342 356 37 305 331 358 309 319 336 329 296 260 155 97 83 64 68 85 88 86 86 78 75 69 61 57 48
358 357 356 355 355 356 356 356 357 356 357 358 358 356 354 355 355 355 358 2 4 5 7 358 328 164 189 279 285 248 134 63 353 347 355 1 12 22 23 18 16 15 8 13 11 352 338 348 8 10 313 340 25 327 360 6 220 216 303 110 125 239 175 332 274 295 322 285 340 339 305 296 210 137 114 84 67 84 92 90 90 87 78 75 70 65 60 51
355 355 353 352 353 354 354 355 355 354 355 355 355 354 351 352 352 350 354 358 0 1 1 353 326 252 252 261 287 282 124 37 340 355 5 6 15 23 22 21 19 16 6 16 19 356 341 8 23 26 331 342 349 321 10 26 231 230 336 360 254 227 165 183 239 249 15 349 357 341 316 356 117 127 114 87 84 95 95 91 90 88 83 76 72 68 61 54
352 352 351 350 350 352 352 353 353 353 353 352 352 352 349 349 348 346 348 354 357 357 353 346 356 299 262 249 276 281 109 64 347 357 7 10 16 18 22 24 20 23 10 11 35 12 1 10 352 32 360 290 289 300 288 63 287 283 311 309 275 259 154 179 217 114 93 22 358 326 311 312 160 155 120 95 101 106 99 95 95 90 89 82 78 71 62 60
350 350 348 348 348 350 351 351 352 351 351 351 349 349 347 344 343 341 342 349 353 354 348 328 329 337 295 257 266 281 103 56 353 360 7 6 11 12 19 23 16 22 12 10 60 33 357 350 332 343 90 300 310 260 194 123 306 282 308 306 254 226 128 178 186 120 155 33 344 298 295 289 163 136 134 118 107 110 105 103 103 93 94 89 84 77 63 62
348 348 347 346 346 348 349 349 350 349 349 349 346 345 345 340 339 336 336 345 349 350 346 322 290 299 300 264 238 90 103 18 353 6 4 358 3 7 7 11 9 16 11 5 54 36 334 345 333 284 259 317 311 280 155 70 303 290 305 313 189 158 142 190 167 157 202 56 323 299 299 244 159 142 142 123 110 110 109 106 104 95 95 91 85 83 67 56
346 347 346 344 345 346 347 348 348 348 347 346 345 343 341 337 334 330 330 340 347 347 343 328 296 275 290 288 143 122 69 357 355 4 360 355 355 354 353 356 359 1 360 349 345 345 318 331 284 270 319 311 293 351 95 50 278 267 260 236 152 145 177 198 165 173 201 197 298 315 345 214 172 159 141 121 121 116 111 108 106 98 90 85 76 76 69 55
345 345 345 343 344 344 345 346 346 346 345 344 343 340 340 335 327 323 326 335 344 345 339 339 329 259 261 95 122 164 22 20 15 357 352 1 359 353 1 354 348 337 337 333 291 305 311 321 272 274 299 246 254 45 225 189 221 246 145 217 218 172 180 179 150 170 190 197 223 309 319 263 116 130 120 114 122 118 115 108 102 98 87 84 72 62 59 57
342 343 344 342 342 343 344 344 344 344 343 343 341 338 338 330 321 319 322 332 346 346 341 338 352 301 263 167 133 211 33 44 25 355 351 4 4 354 344 340 330 311 318 312 276 293 300 281 253 276 267 199 224 313 274 196 193 224 48 315 310 10 172 155 62 143 160 226 198 352 283 299 50 102 114 114 117 112 113 108 101 97 87 82 69 58 43 53
340 342 343 341 341 342 342 343 343 343 342 342 340 337 334 326 318 316 317 336 348 345 313 308 324 314 294 176 140 154 55 49 358 353 354 358 1 344 324 325 309 285 291 277 273 277 260 244 224 274 355 192 200 268 296 320 196 184 58 345 343 343 297 148 76 135 66 315 238 96 218 276 75 107 98 107 115 114 114 110 102 94 87 81 66 60 40 43
339 340 341 340 340 340 341 342 342 342 342 341 341 338 334 326 317 315 328 352 347 347 164 338 332 290 265 87 123 157 45 22 322 346 356 353 354 346 332 323 307 301 273 237 254 257 205 209 197 61 160 229 287 29 360 2 348 324 47 7 302 305 315 296 217 199 131 137 313 285 210 261 141 115 100 108 117 120 118 112 107 97 90 83 68 61 40 37
336 338 340 338 339 340 340 341 342 343 342 342 344 339 331 327 321 311 8 358 342 231 164 350 334 290 205 43 52 58 4 314 299 336 358 349 345 341 325 298 303 320 291 233 225 224 175 183 186 328 275 205 27 47 47 31 340 291 340 339 293 304 300 279 243 230 255 112 312 268 220 264 245 119 119 122 120 120 117 113 112 101 92 83 71 63 42 41
332 336 339 338 338 338 339 341 341 345 345 344 347 344 339 344 336 268 27 355 345 195 296 348 338 280 270 356 41 355 326 299 298 332 360 346 342 333 296 258 260 306 295 266 234 235 183 333 256 299 348 48 40 57 69 328 315 281 292 274 271 278 269 273 262 135 347 351 286 271 255 269 264 147 140 133 121 117 115 114 109 99 88 75 68 62 43 46
329 333 337 338 337 337 340 340 341 347 349 351 355 355 358 0 353 163 354 344 337 148 317 315 298 260 264 360 358 331 313 264 253 124 7 345 336 327 289 233 227 234 266 317 308 267 69 336 332 39 27 39 34 52 16 292 272 263 263 240 247 252 256 282 26 121 66 43 282 297 277 268 267 176 150 137 126 123 124 120 112 104 92 75 74 63 43 53
325 329 334 337 337 337 339 340 343 349 353 4 13 16 27 16 351 317 338 309 242 142 293 315 344 271 273 350 342 341 318 215 209 112 14 349 323 315 356 317 289 283 319 317 297 144 57 317 356 67 23 9 355 256 229 251 250 255 248 244 253 247 260 295 136 136 77 61 272 274 261 264 259 169 149 144 141 138 136 128 120 112 103 97 97 85 59 65
321 326 331 333 336 337 339 342 344 348 357 16 33 51 88 75 189 212 315 289 272 158 177 239 321 254 234 168 311 337 261 228 166 97 6 350 319 326 360 347 331 323 317 315 323 22 342 298 121 88 22 323 265 224 221 233 237 249 243 245 254 238 281 293 128 89 22 3 268 265 264 273 220 151 145 144 136 127 123 118 117 111 108 115 107 101 80 21
317 324 327 328 336 336 338 343 345 353 6 27 50 63 84 139 170 167 188 288 289 183 166 204 241 219 164 166 293 294 256 275 125 81 359 348 352 104 339 332 333 310 308 351 35 351 305 281 97 70 103 328 284 240 236 242 236 242 253 262 255 131 57 249 215 8 329 290 267 276 274 267 127 127 123 121 121 118 118 114 116 120 124 134 124 113 87 20
314 324 325 325 331 334 338 341 351 7 12 32 53 55 55 167 150 117 186 268 276 222 127 180 262 285 142 151 285 261 277 360 94 34 7 355 350 112 291 5 331 291 320 37 12 296 280 300 23 333 230 321 309 287 272 263 265 267 275 268 241 93 80 242 290 321 300 276 267 282 274 229 163 161 152 132 136 137 139 140 137 143 142 128 103 88 68 12
312 321 324 325 326 331 338 340 7 11 10 34 27 26 44 146 147 84 13 267 265 281 18 168 233 303 125 140 225 270 337 59 63 26 19 19 9 343 359 77 272 284 4 19 323 285 275 276 19 330 308 313 298 290 301 122 274 284 280 119 119 75 284 267 288 303 300 280 233 236 296 255 175 172 170 157 161 159 160 160 148 149 134 105 85 76 68 299
310 321 326 326 325 327 333 347 10 1 12 66 347 352 22 128 155 89 37 266 266 261 48 168 201 197 158 156 228 270 256 249 62 45 43 52 52 330 350 160 198 285 3 3 302 282 258 109 83 354 297 296 281 273 155 110 288 285 227 123 82 255 261 257 267 285 275 257 230 177 276 274 207 179 177 171 170 167 162 158 152 143 112 100 114 125 90 297
309 322 329 330 334 334 336 347 349 352 24 303 325 339 2 134 158 121 51 296 266 178 121 293 288 171 147 109 273 218 221 177 108 86 70 49 71 165 241 285 263 237 73 18 307 255 180 109 117 219 246 279 276 263 220 105 339 250 207 184 160 253 257 250 249 243 237 263 260 220 214 253 263 206 175 169 166 169 167 164 156 132 111 118 125 103 351 309
304 320 331 334 344 346 353 327 336 357 274 285 318 339 17 126 150 97 43 321 274 125 111 205 124 131 120 5 258 250 130 146 143 319 101 20 314 144 233 281 308 299 71 123 281 270 141 140 176 173 90 270 249 201 172 113 172 208 227 248 248 251 252 248 244 242 246 269 262 221 196 240 269 204 159 165 170 177 175 163 149 128 121 119 99 62 310 314
300 321 333 332 342 349 3 338 323 296 264 288 320 349 83 118 145 47 63 304 252 83 42 133 128 148 145 207 221 210 203 168 155 249 168 238 266 147 242 266 318 291 261 209 244 266 139 122 131 130 157 234 187 144 139 132 215 289 329 295 265 251 247 240 235 241 250 256 256 231 197 221 267 166 154 176 187 185 174 152 139 130 115 101 105 229 305 344
297 317 329 333 345 344 342 322 273 260 270 290 350 82 94 110 332 45 214 253 358 53 51 139 130 152 180 230 205 176 197 197 122 148 194 244 181 195 233 63 22 275 261 238 248 252 140 94 70 169 200 201 125 143 165 200 249 337 334 296 281 264 249 228 217 227 250 252 265 253 212 215 253 200 171 190 183 157 153 140 130 123 114 130 161 325 352 11
293 309 325 331 328 311 331 283 237 262 267 238 101 98 78 352 141 198 223 231 25 90 132 143 125 167 204 233 180 169 201 202 155 166 211 119 157 215 231 359 28 325 278 263 262 257 154 166 210 208 307 75 95 196 200 206 250 35 323 294 313 298 267 247 234 81 223 243 261 22 14 267 234 224 170 156 114 118 132 132 131 131 119 85 42 18 13 18
290 305 317 320 315 288 273 235 246 281 261 169 104 113 305 270 203 222 227 43 20 211 167 138 171 195 180 78 261 224 185 190 173 175 195 135 180 216 203 201 133 355 279 250 301 300 223 216 151 90 315 177 128 24 239 221 174 188 247 308 327 324 314 293 344 136 228 245 186 75 33 328 237 243 172 154 132 122 124 121 124 111 47 36 31 20 18 17
286 299 304 305 309 269 255 251 258 275 241 132 122 239 181 208 220 212 209 229 290 192 109 79 73 121 115 88 245 203 83 218 188 166 133 118 191 250 235 198 141 180 256 323 352 302 283 303 122 123 318 183 162 163 204 218 155 202 209 115 187 331 318 277 278 247 241 249 203 91 24 307 254 264 174 151 135 128 121 117 116 92 66 50 31 32 21 6
278 288 293 297 299 268 256 258 259 252 164 115 159 209 173 218 241 220 214 219 220 176 95 85 93 116 146 214 226 162 155 240 187 136 103 135 169 246 243 223 170 177 225 350 319 259 264 288 208 171 164 162 174 155 155 156 150 212 152 118 167 189 243 256 270 253 266 274 246 79 23 265 252 316 134 129 129 128 118 119 114 95 91 70 37 37 18 351
272 278 285 291 295 277 254 257 251 200 152 137 196 196 197 222 234 231 238 235 180 175 124 105 142 170 224 228 215 179 192 251 164 111 196 185 191 217 200 197 192 177 150 168 245 212 234 252 197 144 189 159 157 143 130 109 80 260 94 93 221 205 222 260 221 200 273 297 270 158 216 239 247 353 116 121 138 135 119 113 90 56 50 51 33 21 5 343
265 279 285 283 286 277 249 245 223 167 153 171 196 210 218 223 209 207 228 195 148 148 123 181 182 198 252 226 204 207 154 303 147 104 219 207 215 223 205 185 184 183 173 174 223 194 245 263 175 110 329 85 85 70 85 88 140 181 85 159 226 198 122 91 295 335 47 302 271 173 243 270 57 275 177 145 169 155 120 88 58 30 26 34 15 1 351 336
243 256 268 264 263 259 248 237 193 157 157 201 207 221 223 224 226 229 197 114 358 95 105 256 196 183 242 251 201 191 154 8 167 155 228 210 222 215 198 186 174 188 191 168 231 203 213 268 223 164 344 44 25 3 14 45 104 130 159 195 201 90 94 116 313 349 22 276 262 173 230 243 180 245 190 166 189 171 120 85 59 9 24 14 347 352 342 332
223 235 255 239 231 239 246 218 168 152 156 211 226 237 232 229 232 227 162 124 111 92 137 231 208 181 216 243 228 164 154 173 164 176 223 208 224 186 171 181 187 198 195 97 90 261 75 270 249 33 45 90 8 345 270 4 38 113 186 190 107 152 218 132 144 264 250 271 277 257 257 242 217 211 178 182 189 164 121 72 36 344 11 354 334 340 333 332
200 238 252 197 202 226 222 179 150 152 207 206 224 235 228 233 237 228 178 149 149 143 182 224 215 214 219 213 227 133 160 187 170 175 205 195 221 179 161 173 172 164 57 95 169 244 78 216 253 348 353 76 75 196 190 194 46 57 19 344 88 169 202 166 162 178 231 268 287 290 288 262 218 197 164 169 163 139 129 10 360 338 345 338 338 339 332 337
186 255 206 171 186 206 181 153 145 188 211 215 223 230 232 237 234 221 198 182 175 177 205 219 205 225 241 229 237 193 188 209 198 197 204 187 218 211 183 172 148 136 52 49 71 66 90 214 239 332 330 252 180 195 195 183 164 145 173 200 195 163 139 222 232 145 194 245 265 287 286 267 194 157 140 146 144 142 143 111 276 275 310 339 349 344 336 338
187 252 192 172 180 169 148 146 187 195 211 231 231 236 241 242 224 209 194 190 202 208 216 231 220 227 246 243 240 212 201 223 212 214 230 206 207 226 203 162 142 144 97 49 32 187 165 209 229 239 232 224 217 197 190 162 159 179 191 192 195 182 144 227 253 196 168 228 212 250 277 269 200 165 139 138 144 144 135 142 230 229 82 5 347 342 333 331
202 235 164 165 172 161 153 188 210 190 225 228 230 240 237 238 227 202 178 184 208 218 226 244 235 235 246 243 236 216 204 241 225 206 228 217 198 217 238 127 136 146 133 115 217 210 146 115 241 250 242 228 228 102 106 121 138 202 222 203 189 184 174 200 237 230 137 231 217 231 275 279 179 154 147 136 145 152 158 180 190 147 88 25 336 333 331 327
210 201 133 161 173 170 182 230 196 207 235 224 236 246 230 232 223 186 170 179 192 184 205 233 222 226 236 225 227 230 210 248 246 220 227 233 204 236 303 126 140 143 132 140 173 131 75 92 221 268 285 320 107 75 80 108 98 254 238 212 201 202 193 197 220 143 116 225 204 204 262 268 148 153 151 143 166 179 181 162 116 89 59 12 338 334 332 328
198 180 118 172 186 189 208 217 200 217 229 224 241 243 234 234 210 195 194 185 180 182 207 232 217 217 226 198 209 226 197 223 254 224 213 226 217 326 342 126 152 162 161 199 180 165 186 161 136 298 298 281 257 279 277 208 183 230 226 202 216 221 190 168 168 103 249 236 210 215 251 248 176 180 169 163 189 221 264 96 95 80 26 354 341 333 328 326
175 194 130 174 194 207 226 227 221 229 223 223 237 238 240 241 206 206 212 200 195 195 208 238 212 203 212 186 210 232 210 214 246 229 189 203 228 343 352 14 95 169 176 299 194 169 181 180 160 190 252 257 260 264 250 198 184 222 222 199 207 210 198 197 177 175 234 235 208 215 243 249 215 193 198 206 241 290 318 51 82 71 33 351 336 326 325 329
179 209 169 150 193 221 253 289 263 250 228 223 237 234 230 234 222 202 207 216 216 210 223 244 204 192 205 187 215 241 227 215 226 235 213 185 176 312 339 9 18 90 95 358 131 144 129 217 206 216 235 243 255 272 205 139 166 197 207 203 205 208 206 201 199 215 224 238 236 231 238 259 260 246 258 279 281 288 304 48 51 25 8 346 331 324 328 329
197 212 187 153 178 220 241 250 230 237 234 225 238 237 223 227 228 197 197 214 215 210 228 238 207 206 206 185 213 244 234 215 222 237 239 218 152 17 341 60 58 59 75 21 340 108 119 239 221 223 240 247 258 274 177 156 199 214 203 202 206 209 206 203 215 222 199 180 253 247 233 249 262 263 263 267 271 280 330 65 36 341 340 330 325 328 328 323
201 226 188 173 187 204 207 214 211 221 233 231 237 249 240 229 222 205 197 207 216 205 212 230 219 216 214 202 208 239 234 214 223 234 235 223 148 140 137 79 149 158 96 74 307 102 151 249 224 217 245 252 256 264 242 217 238 235 214 202 208 211 207 211 224 226 204 216 249 259 252 249 258 263 257 266 292 332 110 109 231 304 333 326 333 331 323 316
197 262 199 181 206 213 196 190 191 209 226 226 230 241 242 235 232 227 187 160 234 217 199 229 232 214 213 214 210 231 236 215 225 234 211 193 189 164 174 225 185 170 132 151 265 122 164 254 220 214 253 258 250 256 260 261 264 258 239 214 217 224 218 220 230 230 225 237 251 261 265 264 264 263 269 287 348 132 131 139 262 345 348 339 337 324 314 313
195 206 194 190 223 226 209 184 183 204 220 221 229 234 230 233 236 235 200 187 217 209 188 226 237 215 205 214 213 229 233 212 228 240 190 171 210 183 183 208 152 150 177 172 193 217 212 232 163 193 258 265 249 245 259 264 267 269 261 234 227 237 236 231 234 232 229 241 250 254 262 268 267 262 271 276 153 137 113 338 320 354 359 347 328 314 312 317
209 215 203 215 238 218 214 200 187 200 218 216 222 223 220 229 231 228 223 215 219 215 196 217 233 227 209 217 218 229 234 221 232 243 199 185 210 190 185 185 148 155 184 181 179 200 207 216 92 142 244 263 226 211 245 275 284 276 267 247 230 233 237 235 233 229 223 235 247 250 251 260 267 264 237 215 156 135 118 354 333 336 349 340 314 307 314 325
208 223 210 220 250 218 213 214 195 204 225 216 209 213 220 229 226 218 230 232 224 227 224 218 224 223 222 231 229 230 233 220 225 252 162 162 169 150 163 167 160 163 170 179 189 188 190 202 157 155 218 291 83 143 159 14 310 275 260 234 221 225 233 237 237 232 225 226 238 240 239 253 272 177 220 212 134 122 129 87 360 321 317 311 301 303 322 326